Flag Weather past 2 weeks in Gambier Islands, French Polynesia

Now
69 °F

Mild.


Feels Like: 69 °F
Forecast: 70 / 76 °F
Wind: 12 mph from South

Location: Rikitea

Current Time: Nov 28, 2014 at 5:44:41 AM

Latest Report: Nov 28, 2014 at 5:00 AM


Visibility: N/A

Pressure: 29.90 "Hg

Humidity: 75%

Dew point: 60 °F

Location of Gambier IslandsLocation

Historic Weather in Gambier Islands — Graph

°F

Gambier Islands temperature yesterday

Maximum temperature yesterday: 77 °F (at 12:00 PM)
Minimum temperature yesterday: 67 °F (at 3:00 AM)
Average temperature yesterday: 72 °F

Past Weeks' High & Low Weather Summary

 TemperatureHumidityPressure
High80 °F (Nov 16, 1:00 PM)97% (Nov 24, 4:00 PM)30.11 "Hg (Nov 24, 4:00 PM)
Low65 °F (Nov 24, 5:00 PM)60% (Nov 13, 9:00 AM)29.86 "Hg (Nov 27, 2:00 AM)
Average72 °F79%30.00 "Hg
* Reported Nov 13 4:00 AM — Nov 28 4:00 AM, Gambier Islands, Weather by CustomWeather, © 2014

Note: Actual official high and low records may vary slightly from our data, if they occured in-between our weather recording intervals... More about our weather records

Advertising

Gambier Islands weather history for previous 24 hours

 ConditionsComfort  
Time TempWeatherWind HumidityBarometerVisibility
4:00 AM
Nov 28
69 °FMild.14 mph75%29.88 "HgN/A
3:00 AM69 °FMild.14 mph73%29.88 "HgN/A
2:00 AM70 °FMild.15 mph73%29.88 "HgN/A
1:00 AM70 °FMild.14 mph76%29.90 "HgN/A
12:00 AM70 °FMild.13 mph77%29.93 "HgN/A
11:00 PM
Nov 27
70 °FMild.14 mph75%29.94 "HgN/A
10:00 PM70 °FMild.14 mph75%29.94 "HgN/A
9:00 PM71 °FMild.15 mph77%29.95 "HgN/A
8:00 PM71 °FMild.13 mph79%29.93 "HgN/A
7:00 PM71 °FMild.14 mph78%29.92 "HgN/A
6:00 PM71 °FMild.15 mph77%29.88 "HgN/A
5:00 PM73 °FPassing clouds.14 mph75%29.86 "Hg31 mi
4:00 PM73 °FPassing clouds.15 mph73%29.86 "Hg31 mi
3:00 PM75 °FScattered clouds.15 mph72%29.86 "Hg31 mi
2:00 PM77 °FPassing clouds.13 mph67%29.86 "Hg31 mi
1:00 PM77 °FPassing clouds.12 mph68%29.88 "Hg31 mi
12:00 PM77 °FPassing clouds.12 mph68%29.90 "Hg25 mi
11:00 AM76 °FPassing clouds.10 mph67%29.91 "Hg19 mi
10:00 AM76 °FScattered clouds.12 mph68%29.92 "Hg19 mi
9:00 AM75 °FPartly sunny.12 mph69%29.92 "Hg19 mi
8:00 AM74 °FScattered clouds.13 mph71%29.91 "Hg19 mi
7:00 AM73 °FScattered clouds.13 mph75%29.90 "Hg19 mi
6:00 AM71 °FScattered clouds.14 mph78%29.90 "Hg19 mi
5:00 AM69 °FMild.14 mph81%29.87 "HgN/A
Weather by CustomWeather, © 2014

See weather overviewHow to use our weather pages